Tiempo cada hora Dabakala

Hoy, 2 Diciembre, Miércoles

Tiempo Temperatura Precipitaciones Viento Presión Humedad
00:00 +26°C° 0 mm 1 mps 733 mmHg 69%
01:00 +26°C° 0 mm 1 mps 733 mmHg 74%
02:00 +25°C° 0 mm 1 mps 733 mmHg 78%
03:00 +25°C° 0 mm 1 mps 733 mmHg 83%
04:00 +24°C° 0 mm 1 mps 733 mmHg 87%
05:00 +24°C° 0 mm 1 mps 733 mmHg 91%
06:00 +23°C° 0 mm 1 mps 733 mmHg 95%
07:00 +25°C° 0 mm 1 mps 733 mmHg 86%
08:00 +27°C° 0 mm 2 mps 734 mmHg 77%
09:00 +29°C° 0 mm 2 mps 735 mmHg 69%
10:00 +33°C° 0 mm 1 mps 734 mmHg 56%
11:00 +36°C° 0 mm 1 mps 734 mmHg 43%
12:00 +37°C° 0 mm 0 mps 734 mmHg 31%
13:00 +40°C° 0 mm 1 mps 733 mmHg 28%
14:00 +39°C° 0 mm 1 mps 732 mmHg 25%
15:00 +39°C° 0 mm 2 mps 731 mmHg 23%
16:00 +37°C° 0 mm 2 mps 731 mmHg 27%
17:00 +35°C° 0 mm 2 mps 731 mmHg 30%
18:00 +32°C° 0 mm 1 mps 731 mmHg 34%
19:00 +31°C° 0 mm 1 mps 732 mmHg 38%
20:00 +30°C° 0 mm 1 mps 732 mmHg 41%
21:00 +29°C° 0 mm 1 mps 733 mmHg 44%
22:00 +28°C° 0 mm 1 mps 733 mmHg 47%
23:00 +27°C° 0 mm 1 mps 733 mmHg 50%

Mañana, 3 Diciembre, Jueves

Tiempo Temperatura Precipitaciones Viento Presión Humedad
00:00 +27°C° 0 mm 1 mps 733 mmHg 53%
01:00 +26°C° 0 mm 1 mps 733 mmHg 60%
02:00 +25°C° 0 mm 1 mps 733 mmHg 66%
03:00 +25°C° 0 mm 2 mps 733 mmHg 73%
04:00 +24°C° 0 mm 1 mps 733 mmHg 79%
05:00 +24°C° 0 mm 1 mps 733 mmHg 85%
06:00 +24°C° 0 mm 1 mps 733 mmHg 91%
07:00 +25°C° 0 mm 2 mps 734 mmHg 83%
08:00 +27°C° 0 mm 2 mps 734 mmHg 75%
09:00 +29°C° 0 mm 2 mps 735 mmHg 68%
10:00 +32°C° 0 mm 2 mps 735 mmHg 56%
11:00 +36°C° 0 mm 1 mps 734 mmHg 44%
12:00 +37°C° 0 mm 0 mps 734 mmHg 33%
13:00 +40°C° 0 mm 1 mps 733 mmHg 29%
14:00 +39°C° 0 mm 1 mps 732 mmHg 26%
15:00 +39°C° 0 mm 1 mps 732 mmHg 23%
16:00 +36°C° 0 mm 1 mps 732 mmHg 26%
17:00 +34°C° 0 mm 1 mps 731 mmHg 29%
18:00 +32°C° 0 mm 1 mps 731 mmHg 33%
19:00 +31°C° 0 mm 1 mps 732 mmHg 37%
20:00 +30°C° 0 mm 1 mps 733 mmHg 42%
21:00 +29°C° 0 mm 1 mps 733 mmHg 46%
22:00 +28°C° 0 mm 2 mps 733 mmHg 53%
23:00 +27°C° 0 mm 2 mps 733 mmHg 60%

Pasado mañana, 4 Diciembre, Viernes

Tiempo Temperatura Precipitaciones Viento Presión Humedad
00:00 +26°C° 0 mm 2 mps 733 mmHg 67%
01:00 +26°C° 0 mm 2 mps 733 mmHg 75%
02:00 +25°C° 0 mm 1 mps 733 mmHg 82%
03:00 +25°C° 0 mm 1 mps 732 mmHg 90%
04:00 +24°C° 0 mm 1 mps 733 mmHg 92%
05:00 +24°C° 0 mm 1 mps 733 mmHg 94%
06:00 +23°C° 0 mm 1 mps 733 mmHg 97%
07:00 +25°C° 0 mm 1 mps 734 mmHg 86%
08:00 +27°C° 0 mm 2 mps 734 mmHg 76%
09:00 +29°C° 0 mm 2 mps 735 mmHg 66%
10:00 +32°C° 0 mm 2 mps 734 mmHg 54%
11:00 +35°C° 0 mm 1 mps 734 mmHg 43%
12:00 +39°C° 0 mm 1 mps 734 mmHg 31%
13:00 +39°C° 0 mm 1 mps 733 mmHg 28%
14:00 +39°C° 0 mm 2 mps 733 mmHg 26%
15:00 +39°C° 0 mm 2 mps 732 mmHg 23%
16:00 +37°C° 0 mm 2 mps 732 mmHg 27%
17:00 +35°C° 0 mm 2 mps 732 mmHg 32%
18:00 +32°C° 0 mm 2 mps 732 mmHg 36%
19:00 +31°C° 0 mm 2 mps 732 mmHg 39%
20:00 +30°C° 0 mm 2 mps 733 mmHg 41%
21:00 +29°C° 0 mm 2 mps 733 mmHg 44%
22:00 +28°C° 0 mm 2 mps 733 mmHg 51%
23:00 +28°C° 0 mm 2 mps 733 mmHg 59%

5 Diciembre, Sábado

Tiempo Temperatura Precipitaciones Viento Presión Humedad
00:00 +27°C° 0 mm 3 mps 733 mmHg 67%
01:00 +26°C° 0 mm 2 mps 733 mmHg 74%
02:00 +26°C° 0 mm 2 mps 733 mmHg 81%
03:00 +25°C° 0 mm 2 mps 732 mmHg 88%
04:00 +25°C° 0 mm 2 mps 732 mmHg 91%
05:00 +24°C° 0 mm 2 mps 733 mmHg 94%
06:00 +24°C° 0 mm 1 mps 733 mmHg 97%
07:00 +25°C° 0 mm 2 mps 733 mmHg 89%
08:00 +27°C° 0 mm 2 mps 734 mmHg 81%
09:00 +28°C° 0 mm 2 mps 735 mmHg 73%
10:00 +31°C° 0 mm 2 mps 734 mmHg 62%
11:00 +34°C° 0 mm 2 mps 734 mmHg 51%
12:00 +37°C° 0 mm 2 mps 734 mmHg 40%
13:00 +38°C° 0 mm 2 mps 733 mmHg 35%
14:00 +39°C° 0 mm 1 mps 732 mmHg 31%
15:00 +40°C° 0 mm 1 mps 732 mmHg 26%
16:00 +37°C° 0 mm 1 mps 732 mmHg 30%
17:00 +35°C° 0 mm 1 mps 731 mmHg 33%
18:00 +32°C° 0 mm 2 mps 731 mmHg 37%
19:00 +31°C° 0 mm 2 mps 732 mmHg 43%
20:00 +30°C° 0 mm 2 mps 733 mmHg 49%
21:00 +29°C° 0 mm 2 mps 733 mmHg 54%
22:00 +28°C° 0 mm 3 mps 733 mmHg 59%
23:00 +28°C° 0 mm 3 mps 733 mmHg 63%

6 Diciembre, Domingo

Tiempo Temperatura Precipitaciones Viento Presión Humedad
00:00 +27°C° 0 mm 3 mps 733 mmHg 68%
01:00 +27°C° 0 mm 2 mps 733 mmHg 73%
02:00 +26°C° 0 mm 2 mps 733 mmHg 77%
03:00 +25°C° 0 mm 2 mps 732 mmHg 82%
04:00 +25°C° 0 mm 2 mps 732 mmHg 86%
05:00 +24°C° 0 mm 1 mps 733 mmHg 89%
06:00 +24°C° 0 mm 1 mps 733 mmHg 92%
07:00 +26°C° 0 mm 2 mps 733 mmHg 85%
08:00 +27°C° 0 mm 2 mps 734 mmHg 77%
09:00 +29°C° 0 mm 3 mps 734 mmHg 70%
10:00 +31°C° 0 mm 2 mps 734 mmHg 60%
11:00 +34°C° 0 mm 2 mps 734 mmHg 51%
12:00 +37°C° 0 mm 2 mps 733 mmHg 41%
13:00 +37°C° 0 mm 2 mps 733 mmHg 37%
14:00 +37°C° 0 mm 1 mps 732 mmHg 33%
15:00 +39°C° 0 mm 1 mps 731 mmHg 28%
16:00 +36°C° 0 mm 1 mps 731 mmHg 32%
17:00 +34°C° 0 mm 1 mps 731 mmHg 36%
18:00 +33°C° 0 mm 1 mps 732 mmHg 40%
19:00 +31°C° 0 mm 2 mps 732 mmHg 47%
20:00 +30°C° 0 mm 2 mps 733 mmHg 54%
21:00 +29°C° 0 mm 2 mps 733 mmHg 61%
22:00 +28°C° 0 mm 2 mps 733 mmHg 65%
23:00 +28°C° 0 mm 2 mps 733 mmHg 69%

7 Diciembre, Lunes

Tiempo Temperatura Precipitaciones Viento Presión Humedad
00:00 +27°C° 0 mm 3 mps 733 mmHg 73%
01:00 +26°C° 0 mm 2 mps 733 mmHg 77%
02:00 +26°C° 0 mm 2 mps 733 mmHg 80%
03:00 +25°C° 0 mm 2 mps 733 mmHg 84%
04:00 +25°C° 0 mm 2 mps 733 mmHg 88%
05:00 +24°C° 0 mm 1 mps 733 mmHg 91%
06:00 +24°C° 0 mm 1 mps 733 mmHg 95%
07:00 +25°C° 0 mm 2 mps 734 mmHg 86%
08:00 +27°C° 0 mm 2 mps 734 mmHg 77%
09:00 +29°C° 0 mm 3 mps 735 mmHg 69%
10:00 +31°C° 0 mm 2 mps 735 mmHg 59%
11:00 +35°C° 0 mm 2 mps 734 mmHg 49%
12:00 +37°C° 0 mm 2 mps 734 mmHg 39%
13:00 +38°C° 0 mm 2 mps 733 mmHg 36%
14:00 +38°C° 0 mm 2 mps 733 mmHg 32%
15:00 +39°C° 0 mm 1 mps 732 mmHg 28%
16:00 +36°C° 0 mm 1 mps 732 mmHg 33%
17:00 +34°C° 0 mm 1 mps 732 mmHg 37%
18:00 +32°C° 0 mm 1 mps 732 mmHg 41%
19:00 +31°C° 0 mm 1 mps 732 mmHg 45%
20:00 +30°C° 0 mm 2 mps 733 mmHg 49%
21:00 +29°C° 0 mm 2 mps 733 mmHg 53%
22:00 +29°C° 0 mm 2 mps 733 mmHg 59%
23:00 +28°C° 0 mm 2 mps 733 mmHg 65%
Mostrar más

Necesitamos Su Consentimiento

Meteoprog y nuestros Proveedores de Servicios pueden almacenar y acceder a sus datos personales como cookies, identificadores de dispositivo u otras tecnologías similares de su dispositivo y procesar dichos datos para personalizar contenido y anuncios, además de ofrecer funciones de redes sociales y analizar el tráfico.

  • Almacenar y/o acceder a información en su dispositivo

    Se puede almacenar o acceder a cookies, identificadores de dispositivo u otra información de su dispositivo para los fines anteriormente indicados.

  • Anuncios y contenido personalizados, medición de anuncios y contenido, percepciones del público, y desarrollo de productos

    Los anuncios y el contenido pueden personalizarse en base a su perfil. Se pueden añadir más datos para personalizar mejor los anuncios y contenidos. Se puede medir el rendimiento de los anuncios y contenidos. Se puede obtener la percepción sobre el público que ha visto los anuncios y contenidos. Dichos datos pueden usarse para desarrollar o mejorar la experiencia del usuario, sistemas y software.

Al hacer clic en ‘Estoy De Acuerdo’ usted permitirá el uso de las cookies, identificadores de dispositivo, balizas web u otras tecnologías similares indicadas. Su configuración puede cambiarse desde el navegador de su dispositivo.

Para ciertos fines, los intereses legítimos pueden ser considerados por encima del consentimiento. Puede leer más sobre ello en nuestra Política de Privacidad y Cookies.